Regional Weather Roundup
Issued by NWS Goodland, KS

Home | Current Version | Previous Version | Graphics & Text | Print | Product List | Glossary On
Versions: 1 2 3 4 5 6 7 8 9 10 11 12 13 14 15 16 17 18 19 20 21 22 23 24 25 26 27 28 29 30 31 32 33 34 35 36 37 38 39 40 41 42 43 44 45 46 47 48 49 50
000
ASUS43 KGLD 231859
RWRGLD

GOODLAND FORECAST AREA HOURLY WEATHER ROUNDUP
NATIONAL WEATHER SERVICE GOODLAND KS
100 PM MDT WED JUL 23 2014

...OFFICIAL OBSERVATIONS...

CITY           SKY/WX    TMP DP  RH WIND       PRES   REMARKS
GOODLAND KS    SUNNY     84  61  45 SE16      30.31F
HILL CITY KS   CLOUDY    79  64  60 S8        30.23F
IMPERIAL NEB   MOSUNNY   84  65  52 SW10      30.24F
MCCOOK NEB     CLOUDY    75  65  70 NW7       30.20S
AKRON CO       PTSUNNY   76  64  66 SE28G33   30.34F
BURLINGTON CO  MOSUNNY   78  65  63 SE20G30   30.34F
LIMON CO       SUNNY     90  53  28 S17G26    30.35F
$$

...UNOFFICIAL OBSERVATIONS...

CITY           SKY/WX    TMP DP  RH WIND       PRES   REMARKS
COLBY KS       SUNNY     82  64  54 SE13      30.28F
GOVE KS          N/A     79  32  18 MISG        N/A
LENORA KS        N/A     71  32  23 MISG        N/A
NORTON KS      SUNNY     73  64  73 SE10      30.19F
KIT CARSON CO    N/A     80  65  61 N18G41      N/A
YUMA CO          N/A     79  66  63 SE21        N/A
$$


USA.gov is the U.S. government's official web portal to all federal, state and local government web resources and services.